FLOCK 2E'-20 (41782 NORAD) Tracking and Keplerian Element Data

This shows tracking and keplerian element data for the satellite.

Feedback or suggestion? Click here.




ElementValue
Catalog41782
NameFLOCK 2E'-20
Epoch Orbit10490
Epoch Day198.91906151
Epoch Year2018
RAAN167.2619
Inclination51.6328
Eccentricity0.0003272
Argument of Perigee15.6655
Mean Anonmoly344.4448
Mean Motion15.81959554
Decay Rate0.00083543
L11 41782U 98067KQ 18198.91906151 .00083543 00000-0 40120-3 0 9994
L22 41782 51.6328 167.2619 0003272 15.6655 344.4448 15.81959554104900

Live tracking and technical data element details for FLOCK 2E'-20 (NORAD 41782). FLOCK 2E'-20 can be tracked NOW for your location showing map with azimuth and elevation plus other details from your city location.

Track the satellite on the map from your city or location and see movement details for azimuth, elevation, latitude, longitude, range, height, and movement on the map or in text.







IsCatalogInMostPopularTable: catalog: 41782, numindb: 81
Update: records affected: 1



GetName: 41782 FLOCK 2E'-20

Hit Count: updated at: Fri, 20 Jul 2018 20:31:34 GMT